FREGAT R/B, 40130

Orbit data source: Space-Track

FREGAT R/B, 40130 is space debris in HEO originally from a launch on Fri, 22 Aug 2014 UTC launched from the French Guiana (FRGUI). Debris objects in space refer to the collection of defunct objects orbiting the Earth. Examples of debris include non-operational satellites, rocket bodies, and fragments generated from explosions, collisions, or faulty payload assembly.

Loading next visibility...
Identifier
40130, 2014-050C
Orbit
HEO
Country
Flag of CISCIS
Related business
Manufacturer
Lavochkin
Mission
Spacecraft
Bus & Motor
FREGAT, Unknown motor
Mass
1,050 kg wet, 1,050 kg dry
Launch date (UTC)
2014-08-22 (11 years ago)
Launch vehicle
Unknown
Launch site
French Guiana (FRGUI)
Object type
Payload
Rocket body
Debris
Shape & HBR
Irr, 1.6 m
Radar Cross Section
11.055 m², Large (>1 m²)

Expand to show TLE details & history
Last TLE update: 1 day ago

TLE from 1 day ago
0 FREGAT R/B
1 40130U 14050C   26036.26382431  .00000036  00000-0  00000+0 0  9992
2 40130  48.4807 222.9168 2649490 220.1000 117.0041  2.05031189 85815
Epoch: 2026-02-05T06:19Z
TLE epoch observation values (Epoch: 2026-02-05T06:19:54.420Z)
Latitude
-0.00002°
Longitude
-7.48152°
Altitude
24,140.529 km
Speed
3.3 km/s
True Right ascension
14h 51m 39s
True Declination
0° 00' 00"
Sunlit
Object was in daylight at epoch
Visualization orbit readout
Latitude
Unknown
Longitude
Unknown
Altitude
Unknown
Speed
Unknown
Apparent Right ascension
Unknown
Apparent Declination
Unknown
Sunlit
N/A
Visualization observer readout
Local Sidereal Time
19:15:46
Azimuth
Unknown
Elevation
Unknown
Doppler factor
Unknown
Orbital elements
Apogee altitude
26,729.902 km
Perigee altitude
12,860.66 km
Semi-major axis
26,173.418 km
Eccentricity
0.26495
Inclination
48.4807°
RAAN
222.9168°
Arg. of periapsis
220.1°
True anomaly
139.89728°
Mean anomaly
117.0041°
Eccentric anomaly
128.82985°
Mean motion
0.51257 °/min
Orbital period
702.34 mins
BSTAR
0
Loading maneuver chart data...
Computing Atmospheric mass density...
Loading historical data...
Loading historical data...
Loading historical data...
Loading historical data...
Loading historical data...
Loading historical data...
Loading historical data...
Other satellites on launch #50 in the year 2014 (2014-08-22 UTC)

Documentation

Showing up to 5 results
|